| time (UTC) | temp C | wind direction | speed KPH | gust KPH | rain 1hr cm | rain 24hr cm | rain mn cm | humidity % | barometer mb |
| 20260906070050 | 26 | 85 | 6.4 | 12.9 | 0.00 | 0.00 | 0.00 | 83 | 1012.0 |
| 20260906064549 | 27 | 178 | 4.8 | 11.3 | 0.00 | 0.00 | 0.00 | 83 | 1012.0 |
| 20260906063048 | 27 | 105 | 1.6 | 14.5 | 0.00 | 0.00 | 0.00 | 83 | 1012.2 |
| 20260906061545 | 27 | 83 | 6.4 | 14.5 | 0.00 | 0.00 | 0.00 | 82 | 1012.3 |
| 20260906060042 | 27 | 80 | 6.4 | 14.5 | 0.00 | 0.00 | 0.00 | 81 | 1012.6 |
| 20260906054542 | 27 | 128 | 6.4 | 16.1 | 0.00 | 0.00 | 0.00 | 80 | 1012.9 |
| 20260906053041 | 27 | 77 | 9.7 | 17.7 | 0.00 | 0.00 | 0.00 | 80 | 1012.8 |
| 20260906051547 | 27 | 78 | 4.8 | 16.1 | 0.00 | 0.00 | 0.00 | 79 | 1012.9 |
| 20260906050140 | 27 | 77 | 4.8 | 14.5 | 0.00 | 0.00 | 0.00 | 78 | 1013.0 |
| 20260906044539 | 27 | 119 | 4.8 | 17.7 | 0.00 | 0.00 | 0.00 | 78 | 1013.0 |
| 20260906043039 | 27 | 68 | 6.4 | 14.5 | 0.00 | 0.00 | 0.00 | 78 | 1012.8 |
| 20260906041542 | 27 | 76 | 4.8 | 12.9 | 0.00 | 0.00 | 0.00 | 78 | 1012.6 |
| 20260906040042 | 27 | 120 | 3.2 | 9.7 | 0.00 | 0.00 | 0.00 | 78 | 1012.8 |
| 20260906034537 | 27 | 88 | 3.2 | 9.7 | 0.00 | 0.00 | 0.00 | 77 | 1012.5 |
| 20260906033045 | 27 | 105 | 4.8 | 12.9 | 0.00 | 0.00 | 0.00 | 77 | 1012.5 |
| 20260906031544 | 27 | 29 | 4.8 | 16.1 | 0.00 | 0.00 | 0.00 | 77 | 1012.4 |
| 20260906030038 | 27 | 63 | 3.2 | 9.7 | 0.00 | 0.00 | 0.00 | 76 | 1012.2 |
| 20260906024637 | 27 | 90 | 1.6 | 9.7 | 0.00 | 0.00 | 0.00 | 76 | 1012.1 |
| 20260906023037 | 27 | 44 | 3.2 | 11.3 | 0.00 | 0.00 | 0.00 | 76 | 1012.2 |
| 20260906021533 | 27 | 111 | 3.2 | 12.9 | 0.00 | 0.00 | 0.00 | 76 | 1012.0 |
| 20260906020033 | 27 | 89 | 8.0 | 14.5 | 0.00 | 0.00 | 0.00 | 76 | 1012.0 |
| 20260906014533 | 27 | 132 | 4.8 | 12.9 | 0.00 | 0.00 | 0.00 | 76 | 1011.5 |
| 20260906013032 | 27 | 360 | 3.2 | 6.4 | 0.00 | 0.00 | 0.00 | 75 | 1011.4 |
| 20260906011536 | 27 | 103 | 0.0 | 11.3 | 0.00 | 0.00 | 0.00 | 75 | 1011.3 |
| 20260906004530 | 28 | 123 | 8.0 | 14.5 | 0.00 | 0.00 | 0.00 | 73 | 1011.4 |
| 20260906003030 | 28 | 113 | 12.9 | 20.9 | 0.00 | 0.00 | 0.00 | 72 | 1011.4 |
| 20260906001529 | 30 | 130 | 16.1 | 35.4 | 0.00 | 0.00 | 0.00 | 70 | 1011.1 |
| 20260906000028 | 32 | 69 | 27.4 | 33.8 | 0.00 | 0.00 | 0.00 | 72 | 1011.1 |
| 20260905234528 | 32 | 49 | 27.4 | 38.6 | 0.00 | 0.08 | 0.00 | 71 | 1011.1 |
| 20260905233028 | 32 | 44 | 25.7 | 33.8 | 0.00 | 0.08 | 0.00 | 71 | 1010.1 |
| 20260905231526 | 32 | 48 | 20.9 | 32.2 | 0.00 | 0.08 | 0.00 | 70 | 1010.7 |
| 20260905230028 | 32 | 41 | 22.5 | 32.2 | 0.00 | 0.08 | 0.00 | 70 | 1010.8 |
| 20260905224533 | 32 | 11 | 19.3 | 33.8 | 0.00 | 0.08 | 0.00 | 70 | 1010.2 |
| 20260905223024 | 33 | 360 | 20.9 | 33.8 | 0.00 | 0.08 | 0.00 | 70 | 1009.7 |
| 20260905221523 | 33 | 38 | 24.1 | 37.0 | 0.00 | 0.08 | 0.00 | 69 | 1010.0 |
| 20260905220023 | 33 | 24 | 20.9 | 30.6 | 0.00 | 0.08 | 0.00 | 68 | 1010.1 |
| 20260905214520 | 34 | 24 | 16.1 | 29.0 | 0.00 | 0.08 | 0.00 | 67 | 1009.9 |
| 20260905213017 | 34 | 347 | 12.9 | 25.7 | 0.00 | 0.08 | 0.00 | 67 | 1009.8 |
| 20260905211513 | 35 | 19 | 17.7 | 29.0 | 0.00 | 0.08 | 0.00 | 60 | 1009.9 |
| 20260905210012 | 34 | 51 | 14.5 | 24.1 | 0.00 | 0.08 | 0.00 | 59 | 1009.9 |
| 20260905204516 | 35 | 61 | 17.7 | 25.7 | 0.00 | 0.08 | 0.00 | 60 | 1010.0 |
| 20260905203009 | 34 | 63 | 11.3 | 25.7 | 0.00 | 0.08 | 0.00 | 60 | 1010.3 |
| 20260905201509 | 35 | 30 | 12.9 | 20.9 | 0.00 | 0.08 | 0.00 | 61 | 1010.4 |
| 20260905200007 | 34 | 74 | 8.0 | 22.5 | 0.00 | 0.08 | 0.00 | 62 | 1010.5 |
| 20260905193004 | 35 | 63 | 16.1 | 24.1 | 0.00 | 0.08 | 0.00 | 60 | 1010.9 |
| 20260905191559 | 34 | 54 | 6.4 | 16.1 | 0.00 | 0.08 | 0.00 | 61 | 1011.0 |
| 20260905190056 | 33 | 75 | 9.7 | 19.3 | 0.00 | 0.08 | 0.00 | 64 | 1011.2 |
| 20260905184559 | 33 | 170 | 3.2 | 11.3 | 0.00 | 0.08 | 0.00 | 65 | 1011.3 |
| 20260905183055 | 33 | 81 | 12.9 | 20.9 | 0.00 | 0.08 | 0.00 | 66 | 1011.7 |
| 20260905181603 | 33 | 101 | 6.4 | 14.5 | 0.00 | 0.08 | 0.00 | 67 | 1011.9 |
| 20260905180046 | 33 | 115 | 6.4 | 14.5 | 0.00 | 0.08 | 0.00 | 68 | 1012.2 |
| 20260905174550 | 33 | 142 | 4.8 | 16.1 | 0.00 | 0.08 | 0.00 | 68 | 1012.4 |
| 20260905173041 | 32 | 136 | 8.0 | 17.7 | 0.00 | 0.08 | 0.00 | 71 | 1012.7 |
| 20260905171543 | 31 | 134 | 3.2 | 16.1 | 0.00 | 0.08 | 0.00 | 73 | 1013.0 |
| 20260905170036 | 31 | 100 | 4.8 | 16.1 | 0.00 | 0.08 | 0.00 | 75 | 1013.3 |
| 20260905164536 | 31 | 5 | 6.4 | 12.9 | 0.00 | 0.08 | 0.00 | 77 | 1013.6 |
| 20260905163028 | 30 | 129 | 6.4 | 14.5 | 0.00 | 0.08 | 0.00 | 80 | 1013.9 |
| 20260905161526 | 29 | 102 | 6.4 | 12.9 | 0.00 | 0.08 | 0.00 | 81 | 1014.0 |
| 20260905160041 | 30 | 112 | 3.2 | 11.3 | 0.00 | 0.08 | 0.00 | 81 | 1014.1 |
| 20260905154524 | 29 | 136 | 6.4 | 14.5 | 0.00 | 0.08 | 0.00 | 81 | 1014.1 |
| 20260905153023 | 29 | 139 | 8.0 | 16.1 | 0.00 | 0.08 | 0.00 | 82 | 1014.2 |
| 20260905151521 | 29 | 123 | 6.4 | 14.5 | 0.00 | 0.08 | 0.00 | 83 | 1014.2 |
| 20260905150017 | 28 | 103 | 4.8 | 11.3 | 0.00 | 0.08 | 0.00 | 84 | 1014.1 |
| 20260905144513 | 28 | 72 | 8.0 | 14.5 | 0.00 | 0.08 | 0.00 | 84 | 1014.1 |
| 20260905143008 | 28 | 92 | 8.0 | 14.5 | 0.00 | 0.08 | 0.00 | 85 | 1014.1 |
| 20260905141505 | 27 | 148 | 3.2 | 11.3 | 0.00 | 0.08 | 0.00 | 85 | 1013.9 |
| 20260905140000 | 27 | 116 | 6.4 | 11.3 | 0.00 | 0.08 | 0.00 | 86 | 1013.9 |
| 20260905134604 | 27 | 169 | 3.2 | 9.7 | 0.00 | 0.08 | 0.00 | 87 | 1013.7 |
| 20260905131549 | 26 | 111 | 4.8 | 11.3 | 0.00 | 0.08 | 0.00 | 88 | 1013.3 |
| 20260905130044 | 26 | 106 | 3.2 | 9.7 | 0.00 | 0.08 | 0.00 | 89 | 1013.4 |
| 20260905124543 | 26 | 102 | 1.6 | 6.4 | 0.00 | 0.08 | 0.00 | 89 | 1013.1 |
| 20260905123038 | 26 | 119 | 3.2 | 9.7 | 0.00 | 0.08 | 0.00 | 89 | 1013.0 |
| 20260905121534 | 25 | 71 | 0.0 | 6.4 | 0.00 | 0.08 | 0.00 | 89 | 1012.7 |
| 20260905120032 | 25 | 84 | 1.6 | 4.8 | 0.00 | 0.08 | 0.00 | 89 | 1012.6 |
| 20260905114530 | 25 | 89 | 1.6 | 9.7 | 0.00 | 0.08 | 0.00 | 89 | 1012.3 |
| 20260905113029 | 25 | 114 | 0.0 | 4.8 | 0.00 | 0.08 | 0.00 | 89 | 1012.2 |
| 20260905111531 | 25 | 128 | 1.6 | 6.4 | 0.00 | 0.08 | 0.00 | 88 | 1012.1 |
| 20260905110028 | 25 | 93 | 0.0 | 3.2 | 0.00 | 0.08 | 0.00 | 88 | 1012.0 |
| 20260905104527 | 25 | 87 | 0.0 | 9.7 | 0.00 | 0.08 | 0.00 | 88 | 1011.9 |
| 20260905103027 | 25 | 107 | 1.6 | 4.8 | 0.00 | 0.08 | 0.00 | 88 | 1011.8 |
| 20260905101526 | 25 | 82 | 0.0 | 6.4 | 0.00 | 0.08 | 0.00 | 88 | 1011.6 |
| 20260905100025 | 25 | 103 | 1.6 | 9.7 | 0.00 | 0.08 | 0.00 | 88 | 1011.5 |
| 20260905094533 | 25 | 81 | 3.2 | 9.7 | 0.00 | 0.08 | 0.00 | 88 | 1011.6 |
| 20260905093023 | 25 | 74 | 3.2 | 11.3 | 0.00 | 0.08 | 0.00 | 88 | 1011.5 |
| 20260905091550 | 25 | 115 | 3.2 | 11.3 | 0.00 | 0.08 | 0.00 | 87 | 1011.7 |
| 20260905090021 | 25 | 156 | 1.6 | 9.7 | 0.00 | 0.08 | 0.00 | 87 | 1011.8 |
| 20260905084518 | 25 | 71 | 4.8 | 12.9 | 0.00 | 0.08 | 0.00 | 87 | 1012.0 |
| 20260905083017 | 25 | 123 | 6.4 | 14.5 | 0.00 | 0.08 | 0.00 | 87 | 1012.2 |
| 20260905081514 | 26 | 105 | 6.4 | 12.9 | 0.00 | 0.08 | 0.00 | 86 | 1012.2 |
| 20260905080013 | 26 | 132 | 3.2 | 9.7 | 0.00 | 0.08 | 0.00 | 86 | 1012.3 |
| 20260905074514 | 26 | 87 | 3.2 | 11.3 | 0.00 | 0.08 | 0.00 | 85 | 1012.3 |
| 20260905073010 | 26 | 103 | 3.2 | 16.1 | 0.00 | 0.08 | 0.00 | 85 | 1012.4 |
| 20260905071509 | 26 | 123 | 4.8 | 12.9 | 0.00 | 0.08 | 0.00 | 85 | 1012.5 |